Regional Weather Roundup
Issued by NWS Mobile, AL

Home | Current Version | Previous Version | Text Only | Print | Product List | Glossary On
Versions: 1 2 3 4 5 6 7 8 9 10 11 12 13 14 15 16 17 18 19 20 21 22 23 24 25 26 27 28 29 30 31 32 33 34 35 36 37 38 39 40 41 42 43 44 45 46 47 48 49 50
000
ASUS44 KMOB 281516
RWRMOB
REGIONAL WEATHER ROUNDUP
NATIONAL WEATHER SERVICE MOBILE AL
1000 AM CDT TUE JUL 28 2015

ALZ061>064-281600-
COASTAL ALABAMA


CITY           SKY/WX    TMP DP  RH WIND       PRES   REMARKS
MOBILE REG APT MOSUNNY   88  76  67 NW7       30.03S HX  99
BROOKLEY FIELD SUNNY     90  75  61 NW7       30.03S HX 100
GULF SHORES    SUNNY     88  76  66 N5        30.01S HX  99

$$

ALZ051>060-281600-
INTERIOR SOUTHWEST AND SOUTH CENTRAL ALABAMA


CITY           SKY/WX    TMP DP  RH WIND       PRES   REMARKS
ANDALUSIA/OPP  SUNNY     93  73  52 N6        30.01S HX 102
EVERGREEN      SUNNY     90  74  59 VRB6      30.03S HX  99
FLORALA        SUNNY     89  73  59 VRB5      30.03S HX  97
GREENVILLE     FAIR      91  71  51 N7        30.02S HX  97

$$

FLZ001>006-281600-
WESTERN FLORIDA PANHANDLE


CITY           SKY/WX    TMP DP  RH WIND       PRES   REMARKS
CRESTVIEW      SUNNY     88  75  65 VRB3      30.02S HX  97
DESTIN         SUNNY     89  75  63 NW6       30.00S HX  99
DUKE FIELD     MOSUNNY   88  74  62 N7        30.01S HX  96
MARY ESTHER    SUNNY     90  73  56 VRB7      29.99S HX  98
MILTON         PTSUNNY   91  75  59 N9        30.01S HX 101
PENSACOLA      SUNNY     88  73  61 N9        30.01S HX  95
NAS PENSACOLA  PTSUNNY   89  73  59 N8        30.00F HX  97
VALPARAISO     MOSUNNY   90  74  58 NW5       30.00F HX  99

$$

...MARINE OBSERVATIONS...

STATION/POSITION TIME  SKY/WX   TEMP    WIND        PRES    VSBY
                                AIR SEA DIR/SP/G
                 (UTC)          (F)     (DEG/KT/KT) (MB)    (MI)
PASCAGOULA       1400            85     330/  8/ 10 1016.5R
PETIT BOIS ISL   1400            84     330/  9/ 11 1017.1R
E DAUPHIN ISLAND 1500            85      10/  5/  5 1016.2R
MIDDLE BAY LIGHT 1400            86     350/  8     1016.3R
USCG MOBILE BAY  1400            85 86  340/  5/  8 1015.5R
STATE DOCKS      1400            89 85              1016.4R
MEAHER PARK      1400            84     330/  4     1015.6S
12 S ORANGE BCH  1450            84 84  340/  6/  8 1015.7S
WVE H/P(F/S)=  1

PENSACOLA BAY    1400            87 82  340/  6/ 11 1016.4R
64 S DAUPHIN ISL 1450            86 87  330/  4/  6 1016.9R
WVE H/P(F/S)=  1

67 S FORT MORGAN 1430            86     330/  6     1016.6R
115 SE PENSACOLA 1450            86 87  310/ 12/ 14 1016.0R
WVE H/P(F/S)=  2/ 3

MID GULF/42001   1450            85 86  290/  4/  6 1017.7R
WVE H/P(F/S)=  1/ 4

EAST GULF/42003  1450            84 85  280/ 10/ 10 1016.8R
WVE H/P(F/S)=  2/ 9


$$

...NEARBY LOCATIONS

CITY           SKY/WX    TMP DP  RH WIND       PRES   REMARKS
GULFPORT       SUNNY     89  74  60 N9        30.01F HX  98
BILOXI         SUNNY     89  76  64 VRB3      30.02S HX 101
PASCAGOULA     SUNNY     88  76  67 NW6       30.02S HX  99
HATTIESBURG    SUNNY     88  74  63 NW7       30.03F HX  96
LAUREL         SUNNY     90 N/A N/A NW8       30.05F
MERIDIAN       MOSUNNY   88  74  63 NW3       30.03S HX  96
MERIDIAN NAS   SUNNY     90  72  55 W8        30.03S HX  97
MONTGOMERY     SUNNY     90  74  59 NW6       30.01F HX  99
MAXWELL AFB    SUNNY     89  76  65 VRB3      30.00F HX 100
TROY           SUNNY     91  74  57 N6        30.02S HX 100
FORT RUCKER    SUNNY     91  76  61 VRB6      29.99F HX 103
DALEVILLE      SUNNY     88  76  66 VRB2      30.00S HX  98
DOTHAN         MOSUNNY   89  74  60 CALM      30.04S HX  98

$$

...OTHER SURROUNDING LOCATIONS...

CITY           SKY/WX    TMP DP  RH WIND       PRES   REMARKS
BIRMINGHAM     SUNNY     88  75  65 CALM      30.05F HX  97
TUSCALOOSA     SUNNY     87  75  67 CALM      30.02F HX  96
COLUMBUS GA    SUNNY     88  72  58 VRB3      30.00F
PANAMA CITY    NOT AVBL
TALLAHASSEE    PTSUNNY   92  75  57 N6        29.98F HX 103
BATON ROUGE    SUNNY     89  74  60 VRB3      30.03S HX  98
NEW ORLEANS    MOSUNNY   89  72  56 NW6       30.03S HX  96
SLIDELL        SUNNY     89  77  67 W5        30.02S HX 101
JACKSON        MOSUNNY   90  75  61 VRB3      30.03F HX 100
MCCOMB         SUNNY     87  76  69 W5        30.04S HX  97

$$

...SURROUNDING MARINE OBSERVATIONS...

STATION/POSITION TIME  SKY/WX   TEMP    WIND        PRES    VSBY
                                AIR SEA DIR/SP/G
                 (UTC)          (F)     (DEG/KT/KT) (MB)    (MI)
WAVELAND         1400            83 88  320/  7/  8 1017.0R
PASCAGOULA RGN A 1400            86     340/  7/  9 1016.1R
PASCAGOULA PORT  1400               86                N/A
GRAND ISLE       1400            86 90  360/  4/  7 1017.0R
SOUTHWEST PASS   1500            89        CALM     1017.3R
PILOT STATION E  1400            92 86   60/  2/  2 1017.3R
SHELL BEACH      1400            84 88  340/  4/  5 1016.3R
PANAMA CITY      1400            85 85  250/  3/  3 1015.3R
APALACHICOLA     1400            83 89   10/  4/  5 1015.6R
TYNDALL TOWER C  1500            83      30/  9/  9 1015.1F
S APLCHCLA/42036 1450            84 85   10/ 14/ 16 1015.2R
WVE H/P(F/S)=  4/ 4


$$



USA.gov is the U.S. government's official web portal to all federal, state and local government web resources and services.